Regional Weather Roundup
Issued by NWS

Home | Current Version | Previous Version | Graphics & Text | Print | Product List | Glossary On
Versions: 1 2 3 4 5 6 7 8 9 10 11 12 13 14 15 16 17 18 19 20 21 22 23 24 25 26 27 28 29 30 31 32 33 34 35 36 37 38 39 40 41 42 43 44 45 46 47 48 49 50
000
ASUS43 KBIS 302110
RWRND

NORTH DAKOTA REGIONAL WEATHER ROUNDUP
NATIONAL WEATHER SERVICE BISMARCK ND
400 PM CDT THU JUL 30 2015

NOTE: "FAIR" INDICATES FEW OR NO CLOUDS BELOW 12,000 FEET WITH NO
SIGNIFICANT WEATHER AND/OR OBSTRUCTIONS TO VISIBILITY.


NDZ001>003-009>011-017-302200-
NORTHWEST NORTH DAKOTA

CITY           SKY/WX    TMP DP  RH WIND       PRES   REMARKS
WILLISTON      SUNNY     84  42  22 N13       30.17F
MINOT          SUNNY     81  48  31 NW20G32   30.11F
MINOT AFB      SUNNY     83  49  31 NW24G32   30.10S
$$

NDZ018>021-031>035-040>046-302200-
SOUTHWEST NORTH DAKOTA

CITY           SKY/WX    TMP DP  RH WIND       PRES   REMARKS
BISMARCK       SUNNY     85  50  29 NW20G26   30.14S
DICKINSON      MOSUNNY   83  46  27 NW9       30.17F
GARRISON         N/A     81  50  33 NW18      30.14S
HETTINGER ARPT MOSUNNY   86  43  22 N12       30.20S
$$

NDZ004>008-012>016-024-026-027-054-302200-
NORTHEAST NORTH DAKOTA

CITY           SKY/WX    TMP DP  RH WIND       PRES   REMARKS
GRAND FORKS    MOSUNNY   83  56  39 NW16G23   29.98F
GRND FRKS AFB  MOSUNNY   80  57  46 NW14      30.00S
DEVILS LAKE    SUNNY     81  54  39 NW22G28   30.04F
$$

NDZ022-023-025-028>030-036>039-047>053-302200-
SOUTHEAST NORTH DAKOTA

CITY           SKY/WX    TMP DP  RH WIND       PRES   REMARKS
FARGO          SUNNY     84  54  35 NW17G28   30.03S
JAMESTOWN        N/A     82  52  35 NW18      30.08F
$$



USA.gov is the U.S. government's official web portal to all federal, state and local government web resources and services.